Regional Weather Roundup
Issued by NWS

Home | Current Version | Previous Version | Text Only | Print | Product List | Glossary Off
Versions: 1 2 3 4 5 6 7 8 9 10 11 12 13 14 15 16 17 18 19 20 21 22 23 24 25 26 27 28 29 30 31 32 33 34 35 36 37 38 39 40 41 42 43 44 45 46 47 48 49 50

317
ASUS44 KMEG 170300
RWRTN
TENNESSEE HOURLY STATE WEATHER ROUNDUP
NATIONAL WEATHER SERVICE MEMPHIS TN
900 PM CST TUE JAN 16 2018

TNZ002-004-019-021-049-052-054-088>092-170400-
WEST TENNESSEE

CITY           SKY/WX    TMP DP  RH WIND       PRES   REMARKS
MEMPHIS INTL   FAIR      11   2  67 N7        30.69S WCI   0
NWS MEMPHIS      N/A      8 N/A N/A MISG        N/A
JACKSON        CLOUDY     7  -1  70 NW3       30.69R
DYERSBURG      CLOUDY     7   1  76 CALM      30.71S
$$

TNZ008-025-027-028-033-062-065-066-170400-
NORTH MIDDLE TENNESSEE

CITY           SKY/WX    TMP DP  RH WIND       PRES   REMARKS
NASHVILLE      FAIR       9  -1  64 N9        30.63S WCI  -4
CLARKSVILLE    FAIR       2  -6  69 N5        30.65R WCI  -8
CROSSVILLE     CLOUDY     6   1  80 N8        30.45S WCI  -7
$$

TNZ061-075-076-078-094-096-097-170400-
SOUTH MIDDLE TENNESSEE

CITY           SKY/WX    TMP DP  RH WIND       PRES   REMARKS
WINCHESTER     CLEAR      9   3  78 N8        30.55F WCI  -4
$$

TNZ017-018-042-046-047-170400-
NORTHEAST TENNESSEE

CITY           SKY/WX    TMP DP  RH WIND       PRES   REMARKS
TRI CITIES     LGT SNOW  25  24  96 W9        30.38R FOG     WCI  15
$$

TNZ012-013-036-069-073-074-170400-
CENTRAL EAST TENNESSEE

CITY           SKY/WX    TMP DP  RH WIND       PRES   REMARKS
KNOXVILLE      CLOUDY    19   8  62 N12       30.48R FOG     WCI   7
OAK RIDGE      CLOUDY    18   9  68 VRB3      30.50R
$$

TNZ083-085-099-170400-
SOUTHEAST TENNESSEE

CITY           SKY/WX    TMP DP  RH WIND       PRES   REMARKS
CHATTANOOGA    CLOUDY    19   9  65 NW13      30.53R WCI   6
$$

SKY/WX REPORTED AS FAIR MEANS FEW OR NO CLOUDS BELOW
12 THOUSAND FEET.





USA.gov is the U.S. government's official web portal to all federal, state and local government web resources and services.